Wind_Speed
10 10 8 6 5 4 3 4 4 4 3 4 5 5 5 8 10 9 9 9 9 8 7 7 8 8 8 8 8 7 7 7 5 4 4 3 3 4 4 4 3 3 3 4
12 10 8 8 7 7 6 5 5 4 4 4 6 5 5 6 8 10 10 9 8 8 7 7 8 7 7 7 7 7 7 7 6 5 4 4 3 4 3 3 3 4 4 4
12 10 11 11 9 9 7 5 7 6 5 4 6 9 6 7 8 9 9 9 7 7 7 7 7 8 7 7 7 6 6 6 5 5 5 5 4 4 4 4 4 5 5 5
14 13 13 12 11 9 8 7 8 6 5 6 5 7 7 7 9 10 9 9 7 6 7 7 7 7 7 7 7 6 6 6 6 5 6 5 5 4 4 4 4 5 5 6
15 15 15 14 12 11 10 8 7 5 5 6 6 8 9 5 7 9 10 9 8 7 7 7 7 7 7 6 6 6 6 6 6 6 5 5 4 4 4 4 5 5 5 6
17 16 17 15 14 13 11 8 6 6 6 8 8 9 10 7 8 9 10 10 9 8 8 8 8 7 6 6 6 6 6 6 5 6 5 5 5 5 4 5 5 5 6 6
17 17 17 16 15 14 12 10 8 9 10 11 9 9 10 10 10 10 9 10 10 9 9 9 8 8 7 6 6 6 7 7 6 5 5 5 5 5 5 5 5 5 6 7
17 17 17 17 17 15 14 12 11 11 11 11 10 9 10 12 12 13 11 10 10 10 9 9 9 8 7 7 7 7 7 7 6 5 5 5 5 5 6 6 6 6 7 8
18 18 18 19 18 18 17 15 13 13 12 11 11 11 12 14 14 13 13 12 11 10 9 9 9 8 8 8 8 7 7 7 7 7 6 6 6 6 6 6 6 7 8 8
20 19 18 19 19 18 18 16 14 14 14 12 13 14 14 14 12 13 13 14 13 12 10 10 9 8 8 9 9 9 8 8 8 7 7 7 6 6 6 7 7 8 8 10
22 21 19 19 20 18 17 16 17 17 16 14 13 14 14 14 14 13 14 15 14 14 13 12 11 9 9 10 10 10 10 9 9 9 8 8 8 7 7 8 8 9 9 10
24 22 21 21 21 19 18 19 19 18 18 17 16 17 15 15 16 15 15 16 15 15 15 14 13 12 11 10 11 11 11 11 10 10 10 10 9 9 9 9 9 10 10 11
26 25 23 21 20 20 21 21 21 20 19 18 18 17 17 18 17 16 17 18 17 16 16 17 15 15 14 13 13 13 12 13 12 12 11 11 11 11 10 11 11 12 12 12
28 27 26 23 21 20 20 21 21 21 21 19 20 20 20 20 19 19 20 19 19 19 18 18 18 17 17 16 16 15 15 15 15 14 13 13 13 13 13 13 13 13 14 14
30 29 28 26 25 24 23 21 22 23 22 21 21 23 24 23 21 21 22 21 20 20 20 20 20 20 20 19 18 18 18 17 17 16 16 16 16 15 15 15 15 15 15 15
32 31 30 28 26 27 26 24 23 23 23 24 24 27 26 25 24 23 23 23 23 21 21 22 22 22 21 21 21 20 20 20 19 19 18 18 18 17 16 16 17 16 16 16
33 33 32 30 28 28 28 26 25 24 25 26 27 27 25 25 24 24 25 26 25 24 23 23 23 23 23 23 22 22 22 22 21 20 19 20 20 19 18 18 18 17 17 18
33 34 33 31 30 31 29 27 27 27 27 28 28 27 25 25 25 26 26 26 26 27 26 26 26 25 25 24 24 24 24 24 23 23 22 22 22 21 20 20 20 19 19 18
33 33 33 31 31 31 30 28 28 28 29 29 29 28 27 26 27 27 27 27 28 27 27 28 27 26 26 26 26 25 25 26 25 25 24 24 23 22 22 21 21 20 20 19
33 34 34 33 32 30 30 29 29 30 31 30 30 29 29 29 29 29 29 29 28 27 27 27 28 28 27 27 27 26 26 26 26 26 26 25 25 25 24 23 23 22 22 21
32 34 34 34 33 32 31 31 31 32 34 32 32 32 31 32 32 31 30 30 30 29 29 28 28 29 29 29 29 28 28 27 27 27 28 27 27 27 26 25 25 24 24 23
32 32 33 33 33 33 33 34 34 34 34 34 33 33 33 34 33 32 32 31 30 31 31 31 30 30 30 30 30 30 30 29 29 29 29 29 29 29 29 27 26 26 26 26
33 33 32 33 34 34 35 36 36 35 35 34 34 34 35 35 35 34 33 32 31 32 33 32 32 32 32 32 32 32 32 31 31 31 31 31 31 32 31 29 29 29 29 29
33 34 34 36 35 35 36 37 37 37 37 36 36 35 35 35 36 35 34 33 33 34 34 34 34 33 34 34 34 34 34 33 33 33 33 33 33 33 33 32 31 31 31 30
36 36 36 37 37 37 37 37 38 38 37 36 36 36 36 36 36 35 35 34 34 35 35 35 35 35 35 35 34 34 35 35 35 35 35 36 35 35 35 34 33 33 33 31
35 36 36 38 39 39 39 38 38 37 36 35 35 35 35 35 35 34 33 33 35 36 35 35 35 35 34 34 35 35 35 36 36 36 36 36 36 35 35 34 33 32 32 32
Wind_Direction
199 195 193 203 212 209 205 233 248 280 313 346 334 345 351 352 359 359 2 3 5 9 10 14 16 18 19 18 17 22 22 27 33 33 29 21 14 13 19 26 24 19 12 5
204 201 205 207 213 222 222 237 258 274 295 328 335 332 338 350 350 350 354 1 1 0 5 7 10 8 8 7 11 17 21 25 29 29 24 15 13 12 17 21 20 18 10 1
206 206 218 219 221 226 229 246 250 255 282 312 325 326 328 337 338 345 348 352 357 357 2 4 4 5 5 6 9 16 26 24 27 25 18 15 21 26 29 31 28 20 14 8
210 211 219 221 223 225 230 238 248 255 271 285 289 296 305 318 329 336 337 340 348 351 355 356 358 355 358 4 10 11 19 17 22 23 22 25 28 29 28 28 24 20 18 360
213 219 221 223 223 221 224 231 245 259 263 281 287 280 285 296 321 327 331 332 338 343 344 348 350 348 347 352 360 3 10 12 12 16 20 25 27 28 26 24 20 20 16 7
218 225 225 221 224 221 221 230 245 250 260 269 271 280 290 295 302 312 323 327 328 332 334 338 340 341 340 341 347 356 359 0 2 6 16 20 19 18 18 15 13 13 6 358
222 228 232 227 225 223 220 225 238 246 258 268 268 268 278 292 295 298 304 318 324 325 325 327 329 330 331 332 337 345 350 351 350 352 358 5 5 6 4 3 1 358 354 349
224 230 232 232 226 223 222 223 234 242 251 264 273 272 280 288 291 292 294 304 311 317 317 319 319 320 321 321 324 332 341 344 339 332 336 341 346 348 352 354 354 352 346 343
222 232 234 235 232 225 225 225 232 248 256 256 260 265 276 275 281 288 294 295 301 306 308 314 316 313 313 314 315 319 328 332 331 322 316 322 329 334 340 346 347 346 342 340
222 227 230 237 237 229 228 228 228 236 248 253 261 264 262 266 271 282 290 292 295 296 303 307 307 305 305 307 307 311 316 321 323 320 310 307 311 320 328 333 334 334 334 335
224 227 229 233 235 230 227 228 230 233 235 248 260 267 271 267 269 272 277 285 291 290 290 294 294 298 296 297 300 303 308 312 316 314 310 302 299 302 308 318 322 323 325 328
223 225 229 233 236 233 232 230 229 236 240 241 249 260 264 269 274 272 268 271 276 279 282 284 286 289 289 288 290 294 298 303 305 305 302 301 296 298 302 305 309 313 319 322
224 223 224 230 238 235 234 236 234 237 243 245 248 258 268 268 270 269 266 267 267 270 275 278 278 282 283 282 285 289 291 294 296 298 299 296 297 296 295 298 302 304 308 312
224 224 223 224 228 236 238 238 238 240 241 246 250 253 258 261 262 264 266 265 264 266 269 271 273 274 276 277 280 282 285 287 290 291 292 292 293 292 292 293 294 296 297 301
226 228 228 227 226 232 237 241 244 244 243 244 251 254 253 259 261 263 263 264 264 265 268 268 269 269 272 275 276 278 280 282 284 285 286 287 290 290 289 290 291 292 294 297
228 230 231 232 233 235 238 240 240 245 248 249 254 257 259 260 261 259 259 259 262 264 266 268 268 270 272 273 274 274 275 278 280 279 281 284 286 287 287 288 290 292 293 294
231 233 233 236 236 239 242 243 243 244 247 249 252 258 260 262 258 257 260 260 260 262 265 268 269 270 271 272 273 273 272 273 275 279 280 280 280 282 284 287 288 290 292 293
233 235 235 236 236 239 242 243 245 247 248 250 252 254 257 261 261 258 260 264 264 265 266 267 269 271 271 271 272 271 273 273 274 276 276 277 278 278 280 283 286 286 288 291
235 236 235 235 239 241 243 243 244 247 248 250 253 253 255 258 260 259 262 264 266 268 269 268 268 269 270 269 270 271 272 273 273 274 274 275 276 276 277 279 282 283 285 287
236 237 236 237 239 240 243 244 245 249 251 250 253 255 254 256 259 261 263 266 269 270 270 269 268 267 268 269 269 269 271 272 273 273 273 274 273 273 274 277 280 280 281 283
237 237 237 238 239 240 242 244 245 247 250 252 253 254 255 256 257 261 265 267 269 269 269 269 268 267 267 268 269 268 269 270 271 273 273 273 274 272 272 274 277 278 279 281
237 238 239 238 239 239 241 243 244 247 251 254 256 257 258 258 259 262 264 265 267 268 267 267 267 266 266 268 269 268 268 269 271 272 272 271 272 273 273 274 275 275 277 280
237 238 238 237 238 240 242 244 246 249 252 255 256 256 257 259 259 260 263 264 264 265 266 267 267 266 266 267 268 268 268 268 269 270 270 270 271 271 273 274 275 275 276 278
238 239 239 241 242 241 243 244 246 248 252 255 257 258 260 260 261 262 263 262 262 264 265 266 267 267 267 267 267 267 267 267 268 268 268 267 268 271 272 273 274 274 276 277
240 241 242 242 243 244 245 246 248 252 254 255 258 259 261 262 262 263 263 263 262 263 264 265 266 267 267 268 268 268 267 267 267 268 268 268 269 270 272 272 272 272 274 275
242 244 243 243 243 245 245 247 249 252 254 256 258 259 261 262 262 264 265 266 265 265 265 266 266 266 266 267 268 268 268 268 268 269 269 269 269 270 271 271 271 272 272 273
Height
5900 5903 5905 5907 5909 5912 5914 5915 5915 5914 5913 5913 5912 5911 5909 5908 5907 5906 5904 5903 5902 5901 5900 5899 5898 5897 5896 5895 5894 5893 5892 5891 5890 5889 5889 5889 5888 5888 5888 5888 5887 5887 5887 5887
5900 5902 5905 5906 5909 5911 5912 5913 5914 5914 5913 5913 5911 5911 5910 5908 5908 5907 5905 5904 5903 5902 5901 5900 5899 5898 5897 5896 5895 5894 5893 5892 5891 5890 5890 5889 5889 5888 5888 5888 5888 5888 5888 5888
5897 5902 5904 5906 5908 5910 5911 5912 5913 5913 5912 5913 5912 5910 5910 5909 5908 5907 5906 5905 5904 5903 5902 5901 5900 5899 5898 5897 5896 5895 5894 5893 5892 5892 5891 5890 5889 5889 5889 5889 5889 5889 5889 5889
5896 5899 5902 5904 5906 5908 5909 5911 5911 5911 5911 5911 5913 5912 5909 5909 5909 5908 5907 5905 5905 5904 5903 5902 5901 5900 5899 5898 5897 5896 5895 5894 5894 5893 5892 5891 5891 5891 5890 5890 5890 5890 5890 5890
5894 5897 5899 5901 5904 5906 5908 5909 5909 5910 5910 5911 5912 5911 5909 5909 5909 5908 5907 5906 5905 5904 5903 5902 5901 5900 5899 5898 5898 5897 5896 5895 5895 5894 5893 5893 5892 5892 5892 5891 5891 5891 5891 5890
5891 5894 5896 5899 5901 5903 5905 5907 5908 5908 5909 5911 5912 5911 5909 5908 5908 5908 5907 5906 5905 5904 5903 5902 5902 5901 5900 5899 5899 5898 5897 5896 5896 5895 5894 5894 5894 5893 5893 5892 5892 5892 5891 5890
5888 5891 5892 5895 5898 5901 5903 5905 5907 5908 5909 5909 5910 5910 5909 5908 5908 5907 5906 5905 5905 5904 5903 5902 5901 5901 5900 5899 5899 5898 5898 5897 5896 5896 5896 5895 5895 5894 5894 5893 5893 5892 5891 5891
5886 5889 5891 5893 5895 5898 5900 5903 5905 5907 5908 5908 5908 5907 5908 5907 5907 5906 5905 5904 5904 5903 5902 5902 5901 5900 5900 5899 5899 5898 5898 5897 5897 5896 5896 5896 5895 5895 5894 5894 5893 5892 5891 5890
5883 5886 5888 5890 5892 5895 5897 5899 5903 5904 5905 5905 5906 5905 5905 5905 5905 5904 5903 5903 5903 5902 5902 5901 5900 5899 5899 5899 5898 5898 5898 5897 5896 5896 5896 5895 5895 5895 5894 5893 5893 5892 5891 5890
5879 5882 5885 5887 5889 5891 5894 5896 5899 5900 5901 5902 5903 5903 5902 5901 5903 5903 5902 5901 5901 5901 5901 5900 5899 5899 5898 5898 5897 5897 5897 5896 5896 5895 5895 5894 5894 5894 5894 5893 5892 5892 5891 5890
5874 5877 5881 5883 5884 5887 5890 5893 5894 5896 5898 5900 5901 5901 5898 5899 5901 5901 5901 5900 5899 5899 5899 5898 5897 5897 5897 5897 5896 5896 5896 5895 5895 5894 5894 5893 5893 5893 5892 5892 5891 5890 5890 5889
5869 5873 5876 5878 5881 5883 5886 5888 5891 5893 5894 5895 5896 5899 5895 5895 5897 5897 5897 5897 5897 5897 5896 5896 5895 5895 5895 5895 5895 5894 5894 5894 5893 5893 5892 5892 5892 5891 5891 5890 5890 5889 5888 5887
5863 5867 5871 5874 5878 5879 5880 5883 5886 5888 5890 5891 5893 5895 5891 5892 5892 5893 5893 5894 5894 5893 5893 5893 5892 5892 5892 5893 5893 5892 5892 5892 5891 5891 5890 5890 5890 5889 5889 5888 5888 5887 5886 5885
5857 5861 5865 5869 5872 5874 5876 5878 5880 5883 5885 5887 5889 5889 5888 5887 5888 5888 5888 5889 5889 5889 5890 5890 5889 5889 5889 5890 5890 5890 5889 5889 5889 5888 5888 5888 5887 5887 5886 5886 5885 5884 5883 5882
5851 5855 5858 5862 5865 5868 5870 5873 5875 5877 5879 5881 5883 5883 5881 5881 5883 5883 5883 5884 5884 5885 5885 5885 5885 5886 5886 5886 5886 5886 5886 5885 5885 5885 5885 5884 5884 5883 5883 5882 5881 5881 5880 5879
5844 5848 5852 5855 5859 5862 5863 5866 5869 5872 5874 5876 5876 5876 5876 5876 5877 5877 5877 5878 5878 5879 5879 5880 5880 5881 5881 5881 5882 5882 5881 5881 5881 5880 5880 5880 5880 5880 5879 5879 5878 5877 5876 5875
5837 5841 5845 5849 5853 5855 5857 5860 5863 5865 5867 5869 5869 5870 5870 5870 5869 5870 5870 5871 5872 5873 5873 5874 5875 5875 5875 5875 5876 5876 5876 5876 5876 5876 5876 5876 5876 5875 5875 5874 5873 5873 5872 5871
5830 5834 5838 5842 5845 5847 5852 5854 5857 5858 5859 5860 5862 5863 5863 5863 5862 5863 5863 5865 5866 5867 5867 5868 5868 5869 5869 5869 5870 5870 5870 5870 5871 5871 5871 5871 5871 5870 5870 5869 5869 5868 5867 5866
5823 5827 5830 5834 5837 5840 5844 5846 5849 5850 5851 5853 5853 5855 5857 5857 5856 5856 5857 5857 5859 5860 5861 5861 5861 5862 5862 5863 5863 5864 5864 5864 5864 5865 5865 5865 5865 5864 5864 5864 5863 5863 5862 5862
5816 5819 5823 5826 5829 5833 5836 5839 5841 5843 5843 5845 5846 5848 5849 5850 5850 5850 5850 5850 5852 5853 5854 5854 5854 5855 5855 5856 5856 5856 5857 5857 5858 5858 5858 5858 5858 5858 5858 5858 5858 5857 5857 5856
5808 5811 5814 5817 5821 5824 5828 5830 5833 5836 5836 5837 5839 5840 5841 5841 5842 5843 5842 5843 5844 5845 5846 5846 5847 5847 5848 5848 5849 5849 5850 5850 5851 5851 5851 5851 5851 5851 5851 5851 5851 5851 5850 5850
5800 5804 5807 5810 5813 5818 5819 5822 5824 5825 5827 5829 5831 5832 5832 5833 5834 5835 5835 5835 5836 5837 5838 5838 5839 5840 5840 5841 5841 5842 5842 5842 5843 5843 5843 5843 5843 5843 5843 5844 5844 5843 5843 5843
5792 5796 5799 5802 5805 5807 5810 5812 5815 5817 5819 5821 5822 5824 5824 5825 5826 5826 5827 5827 5827 5829 5830 5830 5831 5831 5832 5833 5833 5833 5834 5834 5834 5834 5835 5835 5835 5835 5835 5836 5836 5836 5835 5835
5784 5787 5790 5792 5795 5797 5800 5802 5804 5807 5810 5812 5814 5815 5816 5816 5816 5817 5818 5818 5819 5821 5821 5821 5822 5822 5823 5824 5824 5825 5825 5825 5825 5826 5826 5826 5826 5826 5827 5827 5827 5827 5827 5827
5775 5778 5781 5783 5786 5788 5791 5792 5795 5798 5801 5803 5804 5805 5806 5807 5808 5808 5809 5809 5810 5811 5811 5812 5813 5814 5814 5814 5815 5815 5815 5816 5816 5816 5816 5817 5817 5818 5818 5818 5818 5818 5819 5818
5766 5769 5772 5773 5776 5779 5781 5784 5787 5789 5792 5793 5795 5796 5797 5798 5799 5799 5798 5799 5801 5801 5802 5802 5803 5804 5804 5804 5805 5805 5805 5806 5806 5806 5805 5806 5807 5808 5808 5808 5809 5809 5809 5809